Location: Mohawk View
(42.7837°N, 73.7885°W)
Time: 08:37:41
(UTC+00:00)

Cosmos 1408 Rocket - Pass Details

Date: 17 June 2021
Orbit: 600 x 632 km, 82.6° (Epoch: 27 July)

Event Time Altitude Azimuth Distance (km) Brightness Sun altitude
Exits shadow 08:39:08 - 196° (SSW) 2,628 6.3 -6.3°
Reaches altitude 10° 08:40:43 10° 199° (SSW) 1,996 5.7 -6.1°
Maximum altitude 08:45:06 61° 280° (W) 715 3.7 -5.4°
Drops below altitude 10° 08:49:33 10° 1° (N) 2,022 6.8 -4.8°
Sets 08:51:50 0° 5° (N) 2,935 7.7 -4.5°
